UNSW-ECO

Last updated on Tue Dec 04 2018 00:02:06 GMT+0000 (Coordinated Universal Time)

1 42723U 98067MC 18337.56119802 .13780986 12541-4 29133-3 0 9992 2 42723 51.6259 187.6942 0006339 249.0867 110.9484 16.46458799 87542

Satellite not in orbit